Precipitable_Water
1.06 1.00 0.88 0.89 0.86 0.87 0.88 0.83 0.84 0.86 0.90 0.90 0.85 0.79 0.78 0.78 0.78 0.75 0.69 0.68 0.68 0.69 0.72 0.73 0.75 0.77 0.77 0.80 0.81 0.85 0.86 0.81 0.80 0.80 0.79 0.80 0.78 0.74 0.69 0.66 0.58 0.49
1.03 1.00 0.91 0.89 0.87 0.86 0.87 0.87 0.88 0.92 0.91 0.90 0.82 0.78 0.76 0.73 0.71 0.68 0.60 0.57 0.61 0.63 0.68 0.70 0.68 0.68 0.71 0.73 0.77 0.78 0.76 0.70 0.62 0.63 0.61 0.58 0.55 0.54 0.48 0.41 0.38 0.37
1.04 1.00 0.94 0.88 0.86 0.87 0.85 0.87 0.91 0.94 0.94 0.90 0.77 0.71 0.70 0.72 0.71 0.69 0.64 0.59 0.57 0.57 0.59 0.61 0.60 0.60 0.61 0.63 0.65 0.63 0.57 0.52 0.46 0.47 0.47 0.44 0.41 0.38 0.39 0.41 0.42 0.43
1.01 0.97 0.91 0.87 0.85 0.81 0.82 0.87 0.90 0.89 0.86 0.79 0.71 0.64 0.64 0.64 0.67 0.64 0.58 0.54 0.51 0.52 0.50 0.49 0.49 0.50 0.50 0.51 0.51 0.46 0.44 0.43 0.42 0.40 0.38 0.39 0.40 0.43 0.47 0.51 0.53 0.54
0.96 0.93 0.94 0.94 0.86 0.76 0.73 0.76 0.79 0.74 0.70 0.69 0.63 0.60 0.59 0.59 0.57 0.55 0.54 0.50 0.49 0.48 0.50 0.49 0.49 0.47 0.48 0.49 0.48 0.44 0.41 0.40 0.43 0.45 0.47 0.48 0.53 0.56 0.60 0.64 0.63 0.61
0.98 0.96 0.95 0.92 0.81 0.74 0.74 0.69 0.67 0.68 0.69 0.65 0.59 0.56 0.60 0.59 0.58 0.55 0.53 0.52 0.52 0.52 0.51 0.51 0.51 0.53 0.51 0.48 0.47 0.45 0.46 0.48 0.49 0.51 0.51 0.52 0.54 0.59 0.62 0.64 0.64 0.63
0.97 0.93 0.94 0.91 0.85 0.85 0.83 0.73 0.69 0.65 0.65 0.74 0.72 0.60 0.61 0.57 0.57 0.55 0.54 0.56 0.55 0.53 0.53 0.54 0.54 0.54 0.54 0.52 0.51 0.52 0.53 0.52 0.53 0.54 0.54 0.55 0.57 0.58 0.59 0.60 0.61 0.61
1.01 0.98 0.94 0.90 0.89 0.90 0.90 0.84 0.72 0.67 0.65 0.71 0.72 0.71 0.66 0.55 0.57 0.59 0.60 0.60 0.58 0.56 0.55 0.56 0.57 0.57 0.58 0.59 0.58 0.57 0.58 0.60 0.59 0.57 0.55 0.55 0.57 0.58 0.62 0.64 0.63 0.61
1.04 0.96 0.93 0.90 0.93 0.90 0.91 0.89 0.82 0.73 0.76 0.73 0.68 0.76 0.76 0.60 0.61 0.61 0.64 0.66 0.67 0.64 0.60 0.58 0.60 0.63 0.64 0.62 0.59 0.58 0.59 0.61 0.62 0.61 0.59 0.58 0.58 0.58 0.59 0.62 0.63 0.62
1.01 0.97 0.93 0.91 0.90 0.92 0.93 0.94 0.94 0.87 0.84 0.75 0.68 0.63 0.65 0.62 0.62 0.62 0.66 0.69 0.69 0.69 0.68 0.65 0.64 0.67 0.70 0.68 0.66 0.64 0.63 0.64 0.66 0.66 0.63 0.62 0.61 0.58 0.60 0.60 0.64 0.63
0.99 0.98 0.97 0.97 0.95 0.93 0.91 0.93 0.95 0.93 0.90 0.79 0.70 0.59 0.57 0.60 0.61 0.63 0.62 0.66 0.67 0.69 0.68 0.67 0.67 0.65 0.68 0.70 0.74 0.75 0.73 0.71 0.69 0.69 0.70 0.70 0.69 0.69 0.69 0.68 0.70 0.71
1.01 1.01 1.00 1.01 0.99 0.95 0.94 0.93 0.94 0.92 0.90 0.87 0.76 0.67 0.60 0.59 0.64 0.62 0.61 0.62 0.61 0.62 0.64 0.66 0.66 0.66 0.67 0.69 0.69 0.71 0.73 0.72 0.75 0.75 0.76 0.77 0.77 0.80 0.77 0.80 0.81 0.81
0.98 0.98 0.98 1.01 0.99 0.99 0.99 0.98 0.94 0.93 0.91 0.85 0.79 0.76 0.72 0.67 0.64 0.65 0.65 0.66 0.63 0.62 0.63 0.65 0.67 0.68 0.68 0.69 0.72 0.74 0.80 0.83 0.84 0.84 0.83 0.84 0.84 0.85 0.86 0.87 0.86 0.86
0.91 0.95 0.96 0.98 1.00 1.01 1.00 0.98 0.91 0.89 0.89 0.85 0.82 0.80 0.82 0.77 0.75 0.69 0.68 0.68 0.68 0.66 0.67 0.69 0.72 0.71 0.74 0.76 0.79 0.86 0.92 0.92 0.93 0.91 0.90 0.88 0.89 0.88 0.90 0.90 0.89 0.89
0.92 0.93 0.96 0.96 0.95 0.96 0.95 0.95 0.93 0.92 0.89 0.84 0.85 0.86 0.85 0.84 0.84 0.82 0.77 0.71 0.73 0.72 0.73 0.75 0.76 0.77 0.81 0.80 0.83 0.95 1.02 1.00 0.99 0.98 1.00 0.99 0.99 1.00 1.01 0.98 0.99 1.01
0.94 0.94 0.95 0.96 0.95 0.94 0.93 0.92 0.91 0.90 0.88 0.86 0.85 0.86 0.86 0.89 0.89 0.89 0.86 0.79 0.78 0.79 0.79 0.82 0.85 0.87 0.88 0.86 0.90 0.92 0.99 1.01 1.00 1.00 1.01 1.03 1.02 1.01 0.99 1.00 1.00 1.03
0.93 0.92 0.93 0.92 0.93 0.94 0.94 0.94 0.94 0.93 0.93 0.88 0.84 0.84 0.84 0.88 0.89 0.89 0.88 0.87 0.84 0.84 0.86 0.92 0.91 0.93 0.89 0.88 0.93 0.96 0.97 0.96 0.94 0.92 0.94 0.95 0.96 0.98 0.97 0.97 0.98 0.99
0.84 0.85 0.88 0.90 0.91 0.91 0.93 0.95 0.95 0.96 0.94 0.94 0.92 0.88 0.87 0.89 0.90 0.90 0.90 0.89 0.88 0.88 0.90 0.92 0.92 0.92 0.87 0.85 0.87 0.92 0.95 0.95 0.94 0.92 0.94 0.96 0.95 0.93 0.94 0.93 0.93 0.96
0.78 0.78 0.79 0.83 0.88 0.91 0.93 0.93 0.93 0.95 0.96 0.95 0.94 0.93 0.90 0.87 0.87 0.87 0.88 0.91 0.91 0.90 0.92 0.95 0.94 0.92 0.88 0.84 0.84 0.86 0.90 0.94 0.96 0.95 0.93 0.92 0.91 0.90 0.87 0.86 0.88 0.90
0.70 0.76 0.78 0.79 0.79 0.83 0.88 0.90 0.91 0.91 0.95 0.98 0.99 1.01 0.99 0.95 0.89 0.87 0.89 0.89 0.90 0.90 0.91 0.95 0.97 0.96 0.91 0.86 0.85 0.86 0.87 0.90 0.91 0.92 0.93 0.92 0.90 0.88 0.91 0.91 0.88 0.74
0.65 0.66 0.72 0.77 0.80 0.82 0.82 0.80 0.81 0.86 0.89 0.92 0.94 0.96 0.97 0.97 0.96 0.95 0.95 0.95 0.94 0.95 0.93 0.92 0.96 0.98 0.94 0.90 0.89 0.89 0.91 0.91 0.90 0.91 0.95 0.92 0.92 0.98 0.94 0.87 0.87 0.75
0.63 0.62 0.64 0.65 0.68 0.73 0.75 0.75 0.77 0.79 0.81 0.87 0.90 0.92 0.95 0.96 0.96 0.96 0.94 0.90 0.93 0.97 0.96 0.93 0.96 0.98 0.96 0.93 0.92 0.92 0.94 0.94 0.92 0.93 0.92 0.92 0.97 0.94 0.91 0.83 0.74 0.69
0.62 0.62 0.61 0.62 0.63 0.63 0.64 0.68 0.72 0.76 0.80 0.85 0.85 0.87 0.90 0.91 0.89 0.91 0.96 0.95 0.95 0.92 0.90 0.93 1.00 0.96 0.99 0.98 0.95 0.95 0.94 0.92 0.90 0.91 0.90 0.89 0.89 0.91 0.87 0.86 0.76 0.71
0.62 0.61 0.61 0.62 0.62 0.61 0.62 0.65 0.66 0.68 0.70 0.80 0.79 0.80 0.82 0.86 0.90 0.90 0.89 0.89 0.90 0.90 0.91 0.93 0.94 0.98 0.99 0.97 0.97 0.94 0.90 0.86 0.85 0.86 0.85 0.83 0.85 0.86 0.83 0.69 0.59 0.56
0.60 0.61 0.61 0.61 0.61 0.61 0.62 0.61 0.62 0.64 0.64 0.70 0.80 0.81 0.79 0.83 0.85 0.84 0.83 0.87 0.90 0.91 0.92 0.92 0.93 0.95 0.98 1.01 1.04 0.99 0.91 0.88 0.84 0.82 0.78 0.77 0.79 0.75 0.70 0.57 0.54 0.53
0.54 0.55 0.58 0.59 0.59 0.57 0.57 0.58 0.60 0.61 0.63 0.64 0.70 0.78 0.77 0.79 0.82 0.83 0.82 0.84 0.90 0.92 0.91 0.90 0.93 0.94 0.93 0.93 0.95 0.89 0.84 0.88 0.85 0.78 0.74 0.72 0.72 0.70 0.58 0.51 0.50 0.51
Wind_Speed
9 8 8 7 7 8 9 10 10 10 10 10 10 10 10 9 9 8 8 7 7 7 7 7 6 6 6 6 6 6 6 5 5 5 5 5 5 5 5 5 5 5
10 9 8 8 7 8 8 9 9 10 9 9 9 10 10 10 9 8 8 7 7 7 7 7 6 6 6 7 7 7 6 6 5 5 5 5 5 5 5 5 4 4
11 10 9 8 8 8 8 8 8 9 9 9 9 10 10 10 9 9 8 8 7 7 7 7 7 7 7 7 7 7 6 6 5 5 5 5 5 5 5 4 4 3
12 11 10 9 9 9 9 8 8 8 8 8 9 10 10 10 10 9 9 8 8 7 7 7 7 7 7 7 7 7 6 6 6 6 5 5 5 4 4 4 3 3
11 11 10 10 10 9 9 9 9 9 9 8 8 9 9 10 10 9 9 9 8 8 8 8 8 8 8 7 7 7 7 7 7 6 6 5 5 5 4 4 3 3
11 11 10 10 10 9 9 9 9 9 9 9 9 9 9 9 8 8 9 9 9 9 9 9 9 9 9 8 8 8 8 7 7 7 7 6 6 6 6 5 4 4
11 11 10 10 10 10 9 10 10 10 10 10 10 9 9 9 9 9 9 9 9 10 10 10 10 10 9 9 9 8 8 8 8 7 7 8 7 7 7 6 6 6
11 11 11 11 11 11 10 11 11 11 11 10 10 10 10 10 10 10 10 10 10 10 10 10 10 10 10 9 9 9 9 9 9 9 8 8 8 8 8 8 7 7
12 12 12 12 12 12 12 12 11 11 11 10 9 10 10 11 11 11 12 11 11 11 10 10 10 10 10 10 10 10 10 10 9 9 9 9 9 9 9 9 9 9
11 12 12 12 12 12 12 12 12 11 11 10 10 10 10 11 11 12 12 12 12 12 11 11 10 10 10 10 10 10 10 10 10 10 10 10 10 10 10 10 10 10
11 12 12 12 12 12 12 12 12 12 11 11 10 10 11 11 12 13 13 13 13 12 12 12 12 12 12 12 12 12 11 11 11 11 11 12 12 12 12 11 11 11
11 11 12 12 12 11 12 12 13 13 13 12 12 12 12 13 13 14 14 15 15 14 14 13 13 14 14 13 14 14 14 14 13 13 13 14 14 14 14 13 13 13
11 11 11 12 12 12 12 12 13 13 13 13 13 13 14 14 15 15 15 16 16 16 16 15 15 15 15 15 15 15 15 15 15 15 15 15 16 16 16 15 15 15
12 12 12 12 13 13 13 13 13 14 14 15 15 15 15 16 16 17 17 17 17 18 18 17 17 17 17 17 17 17 17 17 16 17 17 17 17 17 17 17 16 16
13 13 13 14 14 14 14 14 14 15 15 16 17 17 17 18 18 19 19 19 19 19 19 19 19 19 19 19 19 18 18 18 17 17 18 18 18 18 18 18 18 18
14 15 15 15 16 16 16 16 16 17 17 18 19 19 19 20 20 21 21 21 21 21 21 20 21 21 20 20 20 20 20 19 19 19 19 19 19 19 19 19 19 19
15 16 16 17 17 17 17 17 18 18 19 20 20 21 21 21 22 22 23 23 23 23 23 23 23 23 22 22 21 22 22 22 22 21 21 21 21 21 21 21 21 21
16 16 17 18 18 19 19 19 19 20 21 21 22 22 23 24 24 24 25 25 25 25 25 26 26 26 25 25 25 25 25 25 25 25 25 25 25 24 23 23 22 22
17 17 18 18 19 20 20 21 21 21 22 23 23 24 25 26 26 27 27 28 28 28 28 28 28 28 29 29 28 28 28 27 27 27 27 28 28 27 26 25 24 24
18 19 19 20 20 21 21 22 22 22 23 23 24 24 25 26 27 28 29 29 30 30 30 30 30 31 31 31 31 31 31 30 29 29 28 29 29 29 28 28 27 26
19 20 20 21 22 22 23 23 24 24 24 24 24 25 25 26 27 28 29 30 30 31 31 32 32 33 33 33 33 33 33 33 33 32 30 30 30 29 29 28 27 26
22 22 22 22 23 23 24 25 25 25 25 25 26 26 26 27 28 29 29 30 30 31 31 32 32 33 34 34 35 34 34 34 34 33 32 31 29 28 27 26 25 24
24 25 25 25 25 26 26 27 27 27 27 27 28 28 29 29 29 30 30 30 31 31 32 33 33 33 33 34 35 35 34 34 33 32 31 30 28 26 25 25 24 24
27 28 28 28 28 28 29 29 29 29 30 30 30 30 31 31 31 31 32 31 32 32 33 33 34 33 33 33 33 34 34 33 32 31 31 30 28 26 26 26 25 24
31 31 32 31 31 31 31 31 32 32 32 32 32 32 33 33 33 34 34 33 33 33 34 34 34 33 32 32 32 32 32 31 31 31 31 30 28 27 26 26 26 25
34 35 35 35 35 35 35 35 34 34 34 34 34 34 34 35 35 35 36 36 35 35 35 35 35 34 33 33 33 32 32 31 31 31 32 30 28 28 27 26 26 26
Wind_Direction
246 251 254 256 257 256 254 254 252 252 254 255 255 256 256 255 255 254 250 246 242 240 242 244 244 244 242 241 238 237 239 238 233 232 230 226 229 232 234 240 246 248
247 249 250 252 254 255 257 257 254 253 254 253 254 255 253 251 250 250 248 244 238 234 235 239 241 244 242 239 238 239 240 237 231 229 225 225 228 229 232 236 238 243
245 246 246 247 250 253 256 257 255 255 253 253 254 253 251 249 247 246 243 239 234 230 230 234 237 239 238 235 236 237 234 229 225 224 222 221 224 224 228 232 233 240
243 245 245 245 246 250 253 252 251 252 252 252 255 253 249 245 242 239 237 233 231 230 229 232 234 235 235 235 235 233 229 227 224 222 219 217 218 219 221 226 232 240
239 242 245 247 248 249 250 249 249 250 251 251 253 254 250 244 239 234 233 232 231 232 232 232 233 233 234 236 235 231 229 228 224 221 219 217 218 221 223 226 229 237
237 240 243 245 246 248 248 248 249 250 250 251 252 253 250 245 239 232 232 233 234 234 234 233 232 231 232 232 231 231 230 227 224 224 224 223 225 228 230 232 235 239
236 238 240 241 244 249 251 250 250 248 248 250 250 248 246 242 237 231 229 230 232 234 233 232 230 229 230 231 231 232 231 229 229 231 232 231 231 232 235 240 243 244
237 238 240 241 244 249 253 254 253 249 248 249 248 247 244 239 235 231 228 227 228 231 231 231 231 231 232 235 235 233 233 234 236 238 237 237 238 240 242 244 245 245
240 243 245 245 248 251 253 255 254 251 248 245 246 247 243 238 236 233 232 232 232 232 234 235 235 235 236 237 236 235 236 238 242 243 243 243 244 245 246 246 247 249
243 246 247 249 253 254 252 252 252 253 250 243 242 244 241 238 236 235 236 237 237 237 238 239 240 239 240 240 239 240 240 240 241 243 244 245 247 247 248 249 251 253
246 248 250 252 253 253 252 251 249 251 252 246 242 241 239 237 236 236 237 238 240 240 241 242 243 241 242 243 242 242 243 243 243 245 245 247 249 249 250 252 253 254
247 251 254 253 251 253 254 253 251 250 249 245 242 240 239 238 237 237 239 239 241 243 244 245 245 244 243 244 243 243 244 244 246 247 248 249 250 251 251 253 254 255
248 252 254 252 253 257 258 256 254 251 247 245 243 243 242 241 240 240 241 241 243 244 245 246 246 247 247 246 245 245 246 247 248 249 249 251 252 252 253 253 254 255
253 254 255 256 259 262 261 259 256 254 251 249 247 245 245 244 244 243 243 244 245 246 247 247 247 247 249 248 246 247 248 249 250 250 251 252 253 253 255 255 256 257
258 258 259 261 263 264 264 263 261 259 257 255 251 249 248 248 247 246 246 247 248 248 248 248 249 249 250 249 248 247 249 250 250 250 252 253 254 256 257 257 259 259
262 262 263 263 264 265 266 265 265 263 261 259 257 253 251 251 250 249 249 249 250 250 250 250 250 251 250 250 248 247 248 251 251 251 253 254 256 257 257 258 260 262
265 265 265 265 265 266 266 266 266 266 264 263 261 258 255 254 253 251 251 251 252 252 251 251 252 252 251 251 251 250 250 252 252 252 255 256 257 258 258 259 262 264
267 267 267 267 267 267 267 267 267 266 266 264 263 261 259 257 255 254 253 253 253 253 253 253 254 254 253 253 253 253 253 253 252 253 255 256 257 258 259 259 262 265
268 269 269 270 270 270 270 270 269 267 265 264 263 262 261 259 258 258 256 255 255 255 255 255 256 256 255 255 255 255 255 255 255 256 256 256 257 257 258 260 263 264
270 270 271 271 271 272 272 272 271 269 267 265 264 263 262 261 261 260 259 259 258 257 257 257 257 257 255 255 255 255 256 256 257 257 257 257 258 258 259 261 262 261
272 273 273 273 272 272 272 272 272 271 269 267 265 264 263 263 262 261 261 261 260 259 258 258 258 257 255 255 256 256 256 256 257 257 257 258 259 258 259 259 258 257
273 273 274 274 274 274 273 273 272 271 270 269 267 266 265 264 264 263 263 262 261 260 259 260 260 258 257 256 257 257 256 256 256 255 255 256 258 257 255 253 253 254
273 274 275 275 275 275 275 274 273 272 271 270 268 268 267 266 266 266 265 264 262 261 261 262 262 261 259 258 257 256 255 254 252 251 251 253 254 253 250 250 251 253
274 275 276 276 275 275 275 275 274 273 272 270 269 268 267 267 267 267 267 267 265 264 263 263 264 263 262 259 257 255 252 250 248 247 248 249 249 249 249 249 250 251
275 275 275 275 275 275 275 275 274 273 272 271 269 268 267 267 267 267 268 268 266 265 264 264 264 264 261 258 256 253 250 247 246 246 247 246 245 245 247 248 247 248
275 275 275 274 274 275 275 274 274 273 272 271 270 269 268 267 267 267 268 268 267 265 264 264 263 263 260 257 255 252 248 247 247 246 245 244 243 243 244 244 244 246